Find Zhangheng 1-02

NORAD ID: 64393 Int'l Des: 2025-128 Owner: CAS Country: CN operational
LEOCIRCULARRETROGRADESSO

当前视图

正在加载3D地球...

About Zhangheng 1-02

Zhangheng 1-02 (NORAD 64393) is a satellite launched Jun 14, 2025 by CAS of CN. It operates in LEO, CIRCULAR, RETROGRADE, SSO orbit with a mass of 730.00 kg.

即将过境

Passes for default location (London). Set your location on the main map for personalized predictions.

高度历史

Loading altitude history...

两行轨道根数

1 64393U 25128A 26194.76484042 -.00000065 00000-0 12049-6 0 9994
2 64393 97.3623 320.9389 0012868 26.9622 333.2279 15.20841644 59966
Epoch: Jul 13, 2026 • Age: 13 hours

当前状态

高度 508.9 km
远地点 / 近地点 N/A
速度 7.62 km/s
星下点 68.60°N, 99.26°W
发射日期 Jun 14, 2025
运行时间 1 year
类型 other

技术详情

分类 Payload
质量 730.00 kg
干质量 700.00 kg
总质量 730.00 kg
长度 1.40 m
直径 1.00 m
跨度 4.00 m
形状 Box+2 pan
制造商 DFHZ
平台类型 CAST-2000
阶段状态 In Orbit
所有者/国家 CAS/CN

Most Searched